Weather reports worldwide

Advertisment
Edinburgh/Royal Botanic Garden , United Kingdom (99180): temperature & dewpoint: 23.09.2020 02:00:00 - 29.09.2020 02:00:00 (BST)Edinburgh/Royal Botanic Garden , United Kingdom (99180): temperature -20cm & temperature -100cm: 23.09.2020 02:00:00 - 29.09.2020 02:00:00 (BST)Edinburgh/Royal Botanic Garden , United Kingdom (99180): precipitation: 23.09.2020 02:00:00 - 29.09.2020 02:00:00 (BST)
Date & Time tt [°C] td [°C] tt -20cm [°C] tt -100cm [°C] rr [mm]
29.09.2020 02:00:00 6,6 5,7 - - 0,0
29.09.2020 01:00:00 8,2 7,2 - - 0,0
29.09.2020 00:00:00 8,1 7,3 - - -
28.09.2020 23:00:00 7,5 6,4 - - 0,0
28.09.2020 22:00:00 9,1 7,6 - - 0,0
28.09.2020 21:00:00 10,9 8,4 - - 0,0
28.09.2020 20:00:00 11,2 8,8 - - 0,0
28.09.2020 19:00:00 12,5 9,9 - - 0,0
28.09.2020 18:00:00 14,2 11,3 - - -
28.09.2020 17:00:00 14,0 12,0 - - -
28.09.2020 16:00:00 15,6 12,0 - - 0,0
28.09.2020 15:00:00 14,7 12,0 - - 0,0
28.09.2020 14:00:00 12,1 9,1 - - 0,0
28.09.2020 13:00:00 12,1 8,9 - - 0,0
28.09.2020 12:00:00 11,7 8,3 - - -
28.09.2020 11:00:00 10,8 7,9 - - 0,0
28.09.2020 10:00:00 9,3 7,4 11,9 13,5 0,0
28.09.2020 09:00:00 7,8 7,4 - - 0,0
28.09.2020 08:00:00 6,5 6,2 - - 0,0
28.09.2020 07:00:00 5,3 4,9 - - 0,0
28.09.2020 06:00:00 4,9 4,5 - - -
28.09.2020 05:00:00 4,6 4,1 - - 0,0
28.09.2020 04:00:00 4,4 3,9 - - 0,0
28.09.2020 03:00:00 4,8 4,3 - - 0,0
28.09.2020 02:00:00 4,7 4,2 - - 0,0
28.09.2020 01:00:00 4,5 4,1 - - 0,0
28.09.2020 00:00:00 4,1 3,6 - - 0,0
27.09.2020 23:00:00 4,3 3,6 - - 0,0
27.09.2020 22:00:00 5,1 4,3 - - 0,0
27.09.2020 21:00:00 5,3 4,1 - - -
27.09.2020 20:00:00 6,2 4,1 - - 0,0
27.09.2020 19:00:00 8,0 5,0 - - 0,0
27.09.2020 18:00:00 10,1 5,3 - - -
27.09.2020 17:00:00 11,5 4,4 - - -
27.09.2020 16:00:00 11,5 4,3 - - 0,0
27.09.2020 15:00:00 11,4 4,1 - - 0,0
27.09.2020 14:00:00 11,3 3,4 - - 0,0
27.09.2020 13:00:00 11,1 3,8 - - 0,0
27.09.2020 12:00:00 10,4 3,0 - - 0,0
27.09.2020 11:00:00 9,6 3,1 - - 0,0
27.09.2020 10:00:00 6,6 3,4 - - 0,0
27.09.2020 09:00:00 2,0 1,5 - - -
27.09.2020 08:00:00 0,1 -0,5 - - 0,0
27.09.2020 07:00:00 0,2 -0,4 - - 0,0
27.09.2020 06:00:00 1,0 0,4 - - 0,0
27.09.2020 05:00:00 1,3 0,6 - - 0,0
27.09.2020 04:00:00 1,6 0,8 - - 0,0
27.09.2020 03:00:00 2,2 1,2 - - 0,0
27.09.2020 02:00:00 3,4 2,3 - - 0,0
27.09.2020 01:00:00 3,6 2,4 - - 0,0
27.09.2020 00:00:00 4,6 2,8 - - 0,0
26.09.2020 23:00:00 6,3 3,1 - - 0,0
26.09.2020 22:00:00 7,7 3,3 - - 0,0
26.09.2020 21:00:00 10,1 3,6 - - 0,0
26.09.2020 20:00:00 10,8 3,8 - - 0,0
26.09.2020 19:00:00 11,6 4,2 - - 0,0
26.09.2020 18:00:00 13,0 4,0 - - 0,0
26.09.2020 17:00:00 13,9 4,3 - - -
26.09.2020 16:00:00 14,8 4,4 - - 0,0
26.09.2020 15:00:00 14,0 3,9 - - 0,0
26.09.2020 14:00:00 13,6 4,0 - - 0,0
26.09.2020 13:00:00 12,7 3,8 - - 0,0
26.09.2020 12:00:00 11,4 4,0 - - 0,0
26.09.2020 11:00:00 10,4 3,7 - - 0,0
26.09.2020 10:00:00 10,6 4,6 - - 0,0
26.09.2020 09:00:00 6,9 3,5 - - 0,0
26.09.2020 08:00:00 5,2 3,0 - - 0,0
26.09.2020 07:00:00 4,7 2,1 - - 0,0
26.09.2020 06:00:00 3,2 0,8 - - 0,0
26.09.2020 05:00:00 4,3 0,8 - - 0,0
26.09.2020 04:00:00 6,3 1,5 - - 0,0
26.09.2020 03:00:00 7,0 1,6 - - 0,0
26.09.2020 02:00:00 6,9 1,2 - - 0,0
26.09.2020 01:00:00 6,8 0,9 - - 0,0
26.09.2020 00:00:00 5,9 0,3 - - 0,0
25.09.2020 23:00:00 7,4 1,0 - - 0,0
25.09.2020 22:00:00 7,8 1,6 - - 0,0
25.09.2020 21:00:00 8,4 2,3 - - -
25.09.2020 20:00:00 8,8 2,0 - - 0,0
25.09.2020 19:00:00 10,9 2,4 - - 0,0
25.09.2020 18:00:00 11,9 2,9 - - -
25.09.2020 17:00:00 12,1 3,7 - - 0,0
25.09.2020 16:00:00 12,5 4,6 - - 0,0
25.09.2020 15:00:00 12,9 4,7 - - 0,0
25.09.2020 14:00:00 12,3 5,8 - - 0,0
25.09.2020 13:00:00 12,0 5,9 - - 0,0
25.09.2020 12:00:00 11,6 4,9 - - 0,0
25.09.2020 11:00:00 12,4 5,7 - - 0,0
25.09.2020 10:00:00 10,5 5,8 13,2 14,0 0,0
25.09.2020 09:00:00 9,2 5,1 - - 0,0
25.09.2020 08:00:00 8,4 4,7 - - -
25.09.2020 07:00:00 7,5 5,0 - - 0,0
25.09.2020 06:00:00 7,0 4,9 - - 0,2
25.09.2020 05:00:00 6,6 4,6 - - 0,0
25.09.2020 04:00:00 6,4 3,3 - - 0,0
25.09.2020 03:00:00 7,4 3,8 - - 0,0
25.09.2020 02:00:00 7,3 4,3 - - 0,0
25.09.2020 01:00:00 7,3 3,7 - - 0,0
25.09.2020 00:00:00 8,8 3,9 - - 0,0
24.09.2020 23:00:00 8,6 3,9 - - 0,0
24.09.2020 22:00:00 8,9 3,4 - - -
24.09.2020 21:00:00 10,6 4,0 - - 0,0
24.09.2020 20:00:00 10,7 4,0 - - -
24.09.2020 19:00:00 11,0 3,9 - - 0,0
24.09.2020 18:00:00 11,1 5,3 - - 0,0
24.09.2020 17:00:00 11,2 5,2 - - 0,0
24.09.2020 16:00:00 10,7 5,5 - - 0,0
24.09.2020 15:00:00 11,0 6,0 - - 0,0
24.09.2020 14:00:00 10,2 6,3 - - 0,0
24.09.2020 13:00:00 10,8 5,2 - - 0,0
24.09.2020 12:00:00 10,8 5,9 - - 0,0
24.09.2020 11:00:00 9,9 6,2 - - 0,0
24.09.2020 10:00:00 9,8 7,8 14,0 14,2 0,0
24.09.2020 09:00:00 6,2 6,0 - - 0,0
24.09.2020 08:00:00 4,0 3,7 - - 0,0
24.09.2020 07:00:00 4,1 3,7 - - 0,0
24.09.2020 06:00:00 3,6 3,1 - - 0,0
24.09.2020 05:00:00 4,1 3,5 - - -
24.09.2020 04:00:00 4,3 3,4 - - 0,0
24.09.2020 03:00:00 5,5 4,6 - - 0,0
24.09.2020 02:00:00 6,5 5,6 - - 0,0
24.09.2020 01:00:00 6,1 5,2 - - 0,0
24.09.2020 00:00:00 7,0 5,2 - - 0,0
23.09.2020 23:00:00 8,6 5,6 - - 0,0
23.09.2020 22:00:00 10,4 6,1 - - 0,0
23.09.2020 21:00:00 10,3 5,7 - - 0,0
23.09.2020 20:00:00 9,8 5,5 - - 0,0
23.09.2020 19:00:00 10,3 5,2 - - 0,0
23.09.2020 18:00:00 10,8 5,1 - - 0,0
23.09.2020 17:00:00 11,1 4,8 - - 0,0
23.09.2020 16:00:00 11,4 5,2 - - 0,0
23.09.2020 15:00:00 11,7 4,3 - - 0,0
23.09.2020 14:00:00 11,6 4,2 - - 0,0
23.09.2020 13:00:00 11,3 3,8 - - 0,0
23.09.2020 12:00:00 11,6 4,9 - - 0,0
23.09.2020 11:00:00 11,7 5,3 - - 0,0
23.09.2020 10:00:00 10,1 6,1 14,4 14,2 0,0
23.09.2020 09:00:00 8,6 7,2 - - 0,0
23.09.2020 08:00:00 6,2 5,7 - - 0,0
23.09.2020 07:00:00 5,2 4,6 - - 0,0
23.09.2020 06:00:00 5,7 4,9 - - 0,0
23.09.2020 05:00:00 6,5 5,4 - - 0,0
23.09.2020 04:00:00 7,6 5,5 - - -
23.09.2020 03:00:00 9,3 6,5 - - 0,0
23.09.2020 02:00:00 10,5 7,4 - - 0,0

tt = temperature
td = dewpoint
tt -20cm = temperature -20cm
tt -100cm = temperature -100cm
rr = precipitation

Next stations